Montreal Mirabel, Quebec

4:13 AM EDT on August 29, 2016 (GMT -0400)
Montreal International (Mirabel)

Weather History for CYMX - May, 2014

Change the Weather History Date:

Sunday, May 18, 2014

  Actual Average Record
Temperature  
Mean Temperature 50 °F -  
Max Temperature 60 °F 63 °F 80 °F (1999)
Min Temperature 41 °F 43 °F 35 °F (2007)
Degree Days  
Heating Degree Days 14    
Moisture  
Dew Point 36 °F    
Average Humidity 59    
Maximum Humidity 87    
Minimum Humidity 31    
Precipitation  
Precipitation 0.00 in - - ()
Sea Level Pressure  
Sea Level Pressure 30.16 in    
Wind  
Wind Speed 6 mph ()    
Max Wind Speed 14 mph    
Max Gust Speed 24 mph    
Averages and records for this station are not official NWS values.
T = Trace of Precipitation, MM = Missing Value Source: Averaged Metar Reports

Daily Weather History Graph

Daily Weather History Graph

Search for Another Location

Airport or City:

Trip Planner

Search our weather history database for the weather conditions in past years. The results will help you decide how hot, cold, wet, or windy it might be!

Date:

Astronomy

May. 18, 2014 Rise Set
Actual Time 5:21 AM EDT 8:24 PM EDT
Civil Twilight 4:46 AM EDT 8:59 PM EDT
Nautical Twilight 4:01 AM EDT 9:44 PM EDT
Astronomical Twilight 3:06 AM EDT 10:39 PM EDT
Moon No Moon Rise 9:09 AM EDT (5/18)
Length of Visible Light 16h 12m
Length of Day
15h 02m
Waning Gibbous, 81% of the Moon is Illuminated
May 18
Waning Gibbous
May 21
Last Quarter
May 28
New
Jun 5
First Quarter
Jun 13
Full

Hourly Weather History & Observations

Time (EDT) Temp. Windchill Dew Point Humidity Pressure Visibility Wind Dir Wind Speed Gust Speed Precip Events Conditions
12:00 AM 48.2 °F - 39.2 °F 71% 30.12 in 25.0 mi WSW 4.6 mph - N/A   Partly Cloudy
1:00 AM 46.4 °F 42.9 °F 39.2 °F 76% 30.12 in 25.0 mi SW 6.9 mph - N/A   Partly Cloudy
2:00 AM 46.4 °F 42.4 °F 39.2 °F 76% 30.12 in 25.0 mi SW 8.1 mph 18.4 mph N/A   Partly Cloudy
3:00 AM 44.6 °F 40.7 °F 39.2 °F 81% 30.13 in 25.0 mi SW 6.9 mph - N/A   Partly Cloudy
4:00 AM 44.6 °F 41.4 °F 39.2 °F 81% 30.14 in 25.0 mi WSW 5.8 mph - N/A   Mostly Cloudy
5:00 AM 42.8 °F 40.1 °F 39.2 °F 87% 30.15 in 25.0 mi WSW 4.6 mph - N/A   Mostly Cloudy
6:00 AM 41.0 °F 39.0 °F 37.4 °F 87% 30.17 in 45.0 mi WSW 3.5 mph - N/A   Partly Cloudy
7:00 AM 42.8 °F 38.0 °F 37.4 °F 81% 30.19 in 45.0 mi WSW 8.1 mph - N/A   Partly Cloudy
8:00 AM 46.4 °F 42.9 °F 37.4 °F 71% 30.20 in 45.0 mi WSW 6.9 mph - N/A   Partly Cloudy
9:00 AM 50.0 °F - 39.2 °F 66% 30.20 in 45.0 mi West 8.1 mph - N/A   Partly Cloudy
10:00 AM 51.8 °F - 41.0 °F 67% 30.20 in 45.0 mi SW 6.9 mph - N/A   Partly Cloudy
11:00 AM 55.4 °F - 41.0 °F 58% 30.19 in 45.0 mi SW 11.5 mph 17.3 mph N/A   Partly Cloudy
12:00 PM 57.2 °F - 41.0 °F 55% 30.18 in 45.0 mi SW 11.5 mph 20.7 mph N/A   Partly Cloudy
1:00 PM 57.2 °F - 39.2 °F 51% 30.17 in 45.0 mi SW 13.8 mph 20.7 mph N/A   Partly Cloudy
2:00 PM 59.0 °F - 35.6 °F 42% 30.16 in 45.0 mi WSW 12.7 mph 24.2 mph N/A   Partly Cloudy
3:00 PM 60.8 °F - 33.8 °F 36% 30.15 in 45.0 mi WSW 12.7 mph 19.6 mph N/A   Partly Cloudy
4:00 PM 60.8 °F - 35.6 °F 39% 30.14 in 45.0 mi West 9.2 mph 18.4 mph N/A   Partly Cloudy
5:00 PM 60.8 °F - 30.2 °F 31% 30.14 in 45.0 mi WNW 10.4 mph - N/A   Partly Cloudy
6:00 PM 59.0 °F - 33.8 °F 39% 30.14 in 45.0 mi WSW 6.9 mph 17.3 mph N/A   Partly Cloudy
7:00 PM 59.0 °F - 30.2 °F 34% 30.14 in 45.0 mi West 8.1 mph - N/A   Partly Cloudy
8:00 PM 55.4 °F - 28.4 °F 36% 30.15 in 45.0 mi West 3.5 mph - N/A   Partly Cloudy
9:00 PM 51.8 °F - 30.2 °F 44% 30.16 in 25.0 mi West 4.6 mph - N/A   Scattered Clouds
10:00 PM 50.0 °F - 32.0 °F 50% 30.17 in 25.0 mi West 4.6 mph - N/A   Partly Cloudy
11:00 PM 48.2 °F - 32.0 °F 54% 30.16 in 25.0 mi West 4.6 mph - N/A   Mostly Cloudy